This is the latest recevied weather packets stored in our database for station/object BG5HLN-13. If no packets are shown the sender has not sent any weather packets the latest 10 day(s).
| Time | Temp. | Humidity | Pressure | Rain* | Wind** | Luminosity | Snow |
|---|---|---|---|---|---|---|---|
| 1778146391 | 27.78° C | 67% | 1009.8 hPa | 0 mm | - | - | - |
| 1778145791 | 27.78° C | 66% | 1009.7 hPa | 0 mm | - | - | - |
| 1778145188 | 27.78° C | 65% | 1009.6 hPa | 0 mm | - | - | - |
| 1778144591 | 27.78° C | 63% | 1009.5 hPa | 0 mm | - | - | - |
| 1778143991 | 27.78° C | 62% | 1009.4 hPa | 0 mm | - | - | - |
| 1778142791 | 27.78° C | 68% | 1009.3 hPa | 0 mm | - | - | - |
| 1778142191 | 27.78° C | 78% | 1009.2 hPa | 0 mm | - | - | - |
| 1778141590 | 27.78° C | 78% | 1009.1 hPa | 0 mm | - | - | - |
| 1778141588 | 27.78° C | 78% | 1009.2 hPa | 0 mm | - | - | - |
| 1778140390 | 28.33° C | 77% | 1008.9 hPa | 0 mm | - | - | - |
| 1778139790 | 28.33° C | 74% | 1008.8 hPa | 0 mm | - | - | - |
| 1778139788 | 28.33° C | 74% | 1008.7 hPa | 0 mm | - | - | - |
| 1778139191 | 28.89° C | 75% | 1008.6 hPa | 0 mm | - | - | - |
| 1778138590 | 28.89° C | 75% | 1008.6 hPa | 0 mm | - | - | - |
| 1778137991 | 28.89° C | 72% | 1008.6 hPa | 0 mm | - | - | - |
| 1778137989 | 28.89° C | 72% | 1008.6 hPa | 0 mm | - | - | - |
| 1778137390 | 29.44° C | 70% | 1008.6 hPa | 0 mm | - | - | - |
| 1778136790 | 29.44° C | 69% | 1008.6 hPa | 0 mm | - | - | - |
| 1778136188 | 29.44° C | 69% | 1008.7 hPa | 0 mm | - | - | - |
| 1778135590 | 29.44° C | 69% | 1008.8 hPa | 0 mm | - | - | - |
| 1778134990 | 30° C | 67% | 1008.7 hPa | 0 mm | - | - | - |
| 1778134390 | 30° C | 67% | 1008.8 hPa | 0 mm | - | - | - |
| 1778134388 | 30° C | 67% | 1008.7 hPa | 0 mm | - | - | - |
| 1778133790 | 30.56° C | 67% | 1008.8 hPa | 0 mm | - | - | - |
| 1778133190 | 30.56° C | 67% | 1008.7 hPa | 0 mm | - | - | - |
* Rain latest hour (hover to see other rain measurements)
** Current wind speed in m/s (hover to see current wind gust speed)